Weather History for Clintonville, WI

Change the Weather History Date:

Tuesday, January 28, 2014

  Actual Average Record
Temperature  
Mean Temperature -8 °F -  
Max Temperature 1 °F 23 °F 42 °F (2008)
Min Temperature -16 °F 5 °F -23 °F (1966)
Degree Days  
Heating Degree Days 72    
Moisture  
Dew Point -18 °F    
Average Humidity 58    
Maximum Humidity 70    
Minimum Humidity 46    
Precipitation  
Precipitation 0.00 in - - ()
Sea Level Pressure  
Sea Level Pressure 30.16 in    
Wind  
Wind Speed 11 mph (West)    
Max Wind Speed 16 mph    
Max Gust Speed 23 mph    
Visibility 10 miles    
Events      
Averages and records for this station are not official NWS values.
T = Trace of Precipitation, MM = Missing Value Source: NWS Daily Summary

Daily Weather History Graph

Daily Weather History Graph

Search for Another Location

Airport:

Trip Planner

Search our weather history database for the weather conditions in past years. The results will help you decide how hot, cold, wet, or windy it might be!

Date:

Astronomy

Jan. 28, 2014 Rise Set
Actual Time 7:18 AM CST 4:58 PM CST
Civil Twilight 6:46 AM CST 5:29 PM CST
Nautical Twilight 6:11 AM CST 6:04 PM CST
Astronomical Twilight 5:37 AM CST 6:39 PM CST
Moon 5:01 AM CST (1/28) 2:46 PM CST (1/28)
Length of Visible Light 10h 42m
Length of Day
9h 40m
Waning Crescent, 7% of the Moon is Illuminated
Jan 28
Waning Crescent
Jan 30
New
Feb 6
First Quarter
Feb 14
Full
Feb 22
Last Quarter

Hourly Weather History & Observations

Time (CST) Temp. Windchill Dew Point Humidity Pressure Visibility Wind Dir Wind Speed Gust Speed Precip Events Conditions
12:15 AM -13.0 °F -32.4 °F -22.0 °F 64% 30.26 in - West 10.4 mph - N/A   Clear
12:35 AM -13.0 °F -32.4 °F -22.0 °F 64% 30.26 in - West 10.4 mph - N/A   Clear
12:55 AM -13.0 °F -30.0 °F -22.0 °F 64% 30.26 in - West 8.1 mph - N/A   Clear
1:15 AM -13.0 °F -33.4 °F -22.0 °F 64% 30.26 in - West 11.5 mph - N/A   Clear
1:35 AM -13.0 °F -31.3 °F -22.0 °F 64% 30.25 in - West 9.2 mph - N/A   Clear
1:55 AM -13.0 °F -32.4 °F -22.0 °F 64% 30.25 in - West 10.4 mph - N/A   Clear
2:15 AM -13.0 °F -28.6 °F -22.0 °F 64% 30.25 in - West 6.9 mph - N/A   Clear
2:35 AM -14.8 °F -30.8 °F -23.8 °F 64% 30.25 in - West 6.9 mph - N/A   Clear
2:55 AM -13.0 °F -30.0 °F -22.0 °F 64% 30.25 in - West 8.1 mph - N/A   Clear
3:15 AM -14.8 °F -33.5 °F -23.8 °F 64% 30.25 in - WSW 9.2 mph - N/A   Clear
3:35 AM -14.8 °F -32.2 °F -23.8 °F 64% 30.25 in - West 8.1 mph - N/A   Clear
3:55 AM -14.8 °F -33.5 °F -23.8 °F 64% 30.24 in - West 9.2 mph - N/A   Clear
4:15 AM -14.8 °F -34.6 °F -23.8 °F 64% 30.24 in - West 10.4 mph - N/A   Clear
4:35 AM -14.8 °F -34.6 °F -23.8 °F 64% 30.24 in - West 10.4 mph - N/A   Clear
4:55 AM -14.8 °F -35.6 °F -23.8 °F 64% 30.24 in - West 11.5 mph - N/A   Clear
5:15 AM -14.8 °F -36.6 °F -23.8 °F 64% 30.23 in - West 12.7 mph 16.1 mph N/A   Clear
5:35 AM -14.8 °F -35.6 °F -23.8 °F 64% 30.23 in - West 11.5 mph - N/A   Clear
5:55 AM -14.8 °F -35.6 °F -23.8 °F 64% 30.23 in - West 11.5 mph - N/A   Clear
6:15 AM -14.8 °F -35.6 °F -23.8 °F 64% 30.23 in - West 11.5 mph - N/A   Clear
6:35 AM -14.8 °F -34.6 °F -23.8 °F 64% 30.23 in - West 10.4 mph - N/A   Clear
6:55 AM -16.6 °F -34.4 °F -23.8 °F 70% 30.24 in - West 8.1 mph - N/A   Clear
7:15 AM -16.6 °F -34.4 °F -23.8 °F 70% 30.25 in - West 8.1 mph - N/A   Clear
7:35 AM -16.6 °F -36.8 °F -23.8 °F 70% 30.25 in - WSW 10.4 mph - N/A   Clear
7:55 AM -14.8 °F -33.5 °F -23.8 °F 64% 30.25 in - WSW 9.2 mph - N/A   Clear
8:15 AM -14.8 °F -33.5 °F -23.8 °F 64% 30.24 in - WSW 9.2 mph - N/A   Clear
8:35 AM -14.8 °F -32.2 °F -23.8 °F 64% 30.24 in - West 8.1 mph - N/A   Clear
8:55 AM -13.0 °F -30.0 °F -22.0 °F 64% 30.24 in - West 8.1 mph - N/A   Clear
9:15 AM -13.0 °F -31.3 °F -22.0 °F 64% 30.24 in - West 9.2 mph - N/A   Clear
9:35 AM -11.2 °F -32.1 °F -22.0 °F 59% 30.23 in - West 12.7 mph 16.1 mph N/A   Clear
9:55 AM -9.4 °F -29.8 °F -20.2 °F 59% 30.23 in - West 12.7 mph 18.4 mph N/A   Clear
10:15 AM -7.6 °F -25.7 °F -20.2 °F 54% 30.23 in - West 10.4 mph - N/A   Clear
10:35 AM -7.6 °F -29.1 °F -18.4 °F 59% 30.23 in - West 15.0 mph 19.6 mph N/A   Clear
10:55 AM -5.8 °F -25.2 °F -18.4 °F 55% 30.23 in - West 12.7 mph 17.3 mph N/A   Clear
11:15 AM -5.8 °F -24.4 °F -18.4 °F 55% 30.21 in - West 11.5 mph 17.3 mph N/A   Clear
11:35 AM -4.0 °F -23.7 °F -18.4 °F 50% 30.19 in - West 13.8 mph 17.3 mph N/A   Clear
11:55 AM -4.0 °F -21.2 °F -16.6 °F 55% 30.18 in - West 10.4 mph 16.1 mph N/A   Clear
12:15 PM -4.0 °F -23.0 °F -16.6 °F 55% 30.17 in - West 12.7 mph 20.7 mph N/A   Clear
12:35 PM -2.2 °F -21.5 °F -16.6 °F 50% 30.16 in - West 13.8 mph - N/A   Clear
12:55 PM -0.4 °F -19.2 °F -16.6 °F 46% 30.15 in 10.0 mi West 13.8 mph - N/A   Clear
1:15 PM -0.4 °F -18.4 °F -14.8 °F 51% 30.14 in 10.0 mi West 12.7 mph 17.3 mph N/A   Clear
1:35 PM -0.4 °F -19.9 °F -14.8 °F 51% 30.13 in 10.0 mi West 15.0 mph 19.6 mph N/A   Clear
1:55 PM -0.4 °F -19.9 °F -14.8 °F 51% 30.12 in 10.0 mi WSW 15.0 mph 19.6 mph N/A   Clear
2:15 PM 1.4 °F -16.1 °F -14.8 °F 47% 30.12 in 10.0 mi West 12.7 mph 17.3 mph N/A   Clear
2:35 PM 1.4 °F -17.6 °F -14.8 °F 47% 30.11 in 10.0 mi West 15.0 mph 19.6 mph N/A   Clear
2:55 PM 1.4 °F -18.2 °F -14.8 °F 47% 30.11 in 10.0 mi West 16.1 mph - N/A   Clear
3:15 PM 1.4 °F -17.6 °F -14.8 °F 47% 30.10 in 10.0 mi West 15.0 mph 20.7 mph N/A   Clear
3:35 PM 1.4 °F -16.1 °F -14.8 °F 47% 30.10 in 10.0 mi West 12.7 mph 21.9 mph N/A   Clear
3:55 PM 1.4 °F -18.2 °F -14.8 °F 47% 30.09 in 10.0 mi West 16.1 mph 21.9 mph N/A   Clear
4:15 PM 1.4 °F -16.1 °F -14.8 °F 47% 30.09 in 10.0 mi West 12.7 mph - N/A   Clear
4:35 PM 1.4 °F -17.6 °F -14.8 °F 47% 30.09 in 10.0 mi West 15.0 mph 19.6 mph N/A   Clear
4:55 PM 1.4 °F -18.2 °F -14.8 °F 47% 30.09 in 10.0 mi West 16.1 mph 19.6 mph N/A   Mostly Cloudy
5:15 PM 1.4 °F -16.9 °F -14.8 °F 47% 30.09 in 10.0 mi West 13.8 mph - N/A   Mostly Cloudy
5:35 PM 1.4 °F -13.5 °F -14.8 °F 47% 30.08 in 10.0 mi West 9.2 mph 19.6 mph N/A   Mostly Cloudy
5:55 PM -0.4 °F -14.7 °F -14.8 °F 51% 30.08 in 10.0 mi WSW 8.1 mph - N/A   Mostly Cloudy
6:15 PM -0.4 °F -16.7 °F -14.8 °F 51% 30.07 in 10.0 mi WSW 10.4 mph - N/A   Scattered Clouds
6:35 PM -0.4 °F -18.4 °F -14.8 °F 51% 30.07 in 10.0 mi West 12.7 mph 18.4 mph N/A   Mostly Cloudy
6:55 PM -0.4 °F -19.9 °F -14.8 °F 51% 30.07 in 10.0 mi WSW 15.0 mph 19.6 mph N/A   Overcast
7:15 PM -0.4 °F -17.6 °F -13.0 °F 55% 30.06 in 10.0 mi WSW 11.5 mph 17.3 mph N/A   Mostly Cloudy
7:35 PM -0.4 °F -17.6 °F -13.0 °F 55% 30.05 in 10.0 mi WSW 11.5 mph - N/A   Mostly Cloudy
7:55 PM -0.4 °F -17.6 °F -13.0 °F 55% 30.05 in 10.0 mi West 11.5 mph 18.4 mph N/A   Scattered Clouds
8:15 PM -0.4 °F -19.2 °F -14.8 °F 51% 30.05 in 10.0 mi West 13.8 mph 20.7 mph N/A   Clear
8:35 PM -0.4 °F -18.4 °F -14.8 °F 51% 30.05 in 10.0 mi West 12.7 mph 19.6 mph N/A   Clear
8:55 PM -0.4 °F -20.5 °F -14.8 °F 51% 30.04 in 10.0 mi West 16.1 mph 23.0 mph N/A   Clear
9:15 PM -2.2 °F -22.2 °F -14.8 °F 55% 30.05 in - West 15.0 mph 20.7 mph N/A   Clear
9:16 PM -2.2 °F -22.9 °F -14.8 °F 55% 30.04 in - West 16.1 mph 20.7 mph N/A   Clear
9:35 PM -2.2 °F -22.9 °F -14.8 °F 55% 30.04 in - West 16.1 mph - N/A   Clear
9:55 PM -2.2 °F -21.5 °F -13.0 °F 60% 30.03 in - West 13.8 mph 19.6 mph N/A   Clear
10:15 PM -2.2 °F -20.7 °F -13.0 °F 60% 30.03 in - West 12.7 mph 18.4 mph N/A   Scattered Clouds
10:35 PM -2.2 °F -21.5 °F -13.0 °F 60% 30.03 in - West 13.8 mph 20.7 mph N/A   Scattered Clouds
10:55 PM -4.0 °F -23.0 °F -13.0 °F 65% 30.03 in - West 12.7 mph 19.6 mph N/A   Clear
11:15 PM -4.0 °F -23.0 °F -13.0 °F 65% 30.02 in - West 12.7 mph - N/A   Clear
11:35 PM -4.0 °F -23.0 °F -13.0 °F 65% 30.02 in - West 12.7 mph 16.1 mph N/A   Clear
11:55 PM -4.0 °F -23.0 °F -13.0 °F 65% 30.01 in - West 12.7 mph 18.4 mph N/A   Clear